Terminal Aerodrome Forecast
Issued by NWS

Home | Current Version | Previous Version | Text Only | Print | Product List | Glossary On
Versions: 1 2 3 4 5 6 7 8 9 10 11 12 13 14 15 16 17 18 19 20 21 22 23 24 25 26 27 28 29 30 31 32 33 34 35 36 37 38 39 40 41 42 43 44 45 46 47
410
FTUS45 KBOU 291120
TAFBJC
TAF
KBJC 291120Z 2912/3012 03006KT P6SM SCT020 SCT050
      TEMPO 2912/2914 BKN020
     FM291700 06008KT P6SM SCT040 SCT080
     FM292100 09010KT P6SM SCT060 BKN080 PROB30 2922/3004 -TSRA
      BKN060CB
     FM300400 13008KT P6SM SCT060 BKN100
     FM300800 02005KT P6SM SCT060 BKN100=

USA.gov is the U.S. government's official web portal to all federal, state and local government web resources and services.